OBJECT E, 64532

Orbit data source: Space-Track

You're viewing an Uncataloged Satellite

Recently launched and/or uncataloged satellites may have evolving metadata. Metadata may include but not limited to: Owner, Maufacturer, Bus, Motor, and Mission.

OBJECT E, 64532 is a satellite in SSO that was launched on Mon, 23 Jun 2025 UTC via an FALCON 9 launch vehicle from the Air Force Western Test Range (AFWTR). Unknown objects in Earth's orbit typically refer to objects detected orbiting the Earth but have not yet been identified or cataloged. These objects could be anything from previously untracked satellites, spent rocket stages, debris from satellite collisions, or even natural meteoroids temporarily captured by Earth's gravity.

Loading next visibility...
Identifier
64532, 2025-135E
Orbit
SSO
Country
Flag of TBDTBD
Related business
None
Manufacturer
Unknown
Mission
Operational Amateur Technology
Bus & Motor
Unknown
Mass
Unknown
Launch date (UTC)
2025-06-23 (9 months ago)
Launch vehicle
FALCON 9
Launch site
Air Force Western Test Range (AFWTR)
Object type
Unknown
Shape & HBR
Box, 0.1 m
Radar Cross Section
0.015 m², Small (<0.1 m²)

Expand to show TLE details & history
Last TLE update: 23 hours ago

TLE from 23 hours ago
0 OBJECT E
1 64532U 25135E   26072.27620379  .00014032  00000-0  58164-3 0  9996
2 64532  97.4602 188.7326 0005522 137.5346 222.6319 15.23989875 40307
Epoch: 2026-03-13T06:37Z
TLE epoch observation values (Epoch: 2026-03-13T06:37:44.007Z)
Latitude
-0.00004°
Longitude
-81.61482°
Altitude
499.708 km
Speed
7.613 km/s
True Right ascension
12h 34m 55s
True Declination
0° 00' 00"
Sunlit
Object was in full shadow at epoch
Visualization orbit readout
Latitude
Unknown
Longitude
Unknown
Altitude
Unknown
Speed
Unknown
Apparent Right ascension
Unknown
Apparent Declination
Unknown
Sunlit
N/A
Visualization observer readout
Local Sidereal Time
09:39:43
Azimuth
Unknown
Elevation
Unknown
Doppler factor
Unknown
Orbital elements
Apogee altitude
494.576 km
Perigee altitude
486.99 km
Semi-major axis
6,868.92 km
Eccentricity
0.00055
Inclination
97.4602°
RAAN
188.7326°
Arg. of periapsis
137.5346°
True anomaly
222.58906°
Mean anomaly
222.6319°
Eccentric anomaly
222.61048°
Mean motion
3.81251 °/min
Orbital period
94.43 mins
BSTAR
0.00058164
Loading maneuver chart data...
Computing Atmospheric mass density...
Loading historical data...
Loading historical data...
Loading historical data...
Loading historical data...
Loading historical data...
Loading historical data...
Loading historical data...

Documentation

Showing up to 5 results
|